Year,Month,Day,Hour,Minute,Value (Times are PST for windgust in km/hr)
2018,01,20,00,02,3.20
2018,01,20,00,03,3.20
2018,01,20,00,06,1.60
2018,01,20,00,07,4.80
2018,01,20,00,08,4.80
2018,01,20,00,09,4.80
2018,01,20,00,10,4.80
2018,01,20,00,11,6.40
2018,01,20,00,12,4.80
2018,01,20,00,13,3.20
2018,01,20,00,14,1.60
2018,01,20,00,15,1.60
2018,01,20,00,16,4.80
2018,01,20,00,17,4.80
2018,01,20,00,18,9.60
2018,01,20,00,19,8.10
2018,01,20,00,20,1.60
2018,01,20,00,21,3.20
2018,01,20,00,22,3.20
2018,01,20,00,23,1.60
2018,01,20,00,29,6.40
2018,01,20,00,30,6.40
2018,01,20,00,31,4.80
2018,01,20,00,32,4.80
2018,01,20,00,33,4.80
2018,01,20,00,34,6.40
2018,01,20,00,35,6.40
2018,01,20,00,36,4.80
2018,01,20,00,37,6.40
2018,01,20,00,38,4.80
2018,01,20,00,39,4.80
2018,01,20,00,40,6.40
2018,01,20,00,41,6.40
2018,01,20,00,42,6.40
2018,01,20,00,43,6.40
2018,01,20,00,44,4.80
2018,01,20,00,45,6.40
2018,01,20,00,46,6.40
2018,01,20,00,47,4.80
2018,01,20,00,48,6.40
2018,01,20,00,49,6.40
2018,01,20,00,50,4.80
2018,01,20,00,51,4.80
2018,01,20,00,52,4.80
2018,01,20,00,53,3.20
2018,01,20,00,54,3.20
2018,01,20,00,55,1.60
2018,01,20,00,56,1.60
2018,01,20,00,57,3.20
2018,01,20,00,58,3.20
2018,01,20,00,59,3.20
2018,01,20,01,06,3.20
2018,01,20,01,07,6.40
2018,01,20,01,08,3.20
2018,01,20,01,09,6.40
2018,01,20,01,10,6.40
2018,01,20,01,11,6.40
2018,01,20,01,12,3.20
2018,01,20,01,13,3.20
2018,01,20,01,20,6.40
2018,01,20,01,21,6.40
2018,01,20,01,22,6.40
2018,01,20,01,23,3.20
2018,01,20,01,24,3.20
2018,01,20,01,29,3.20
2018,01,20,01,30,1.60
2018,01,20,01,32,1.60
2018,01,20,01,44,1.60
2018,01,20,01,45,6.40
2018,01,20,01,46,6.40
2018,01,20,01,47,3.20
2018,01,20,01,48,3.20
2018,01,20,01,49,1.60
2018,01,20,01,50,3.20
2018,01,20,01,51,3.20
2018,01,20,01,52,1.60
2018,01,20,02,33,6.40
2018,01,20,02,34,6.40
2018,01,20,02,35,3.20
2018,01,20,02,36,3.20
2018,01,20,02,37,3.20
2018,01,20,02,38,6.40
2018,01,20,02,39,3.20
2018,01,20,02,43,8.10
2018,01,20,02,44,6.40
2018,01,20,02,49,3.20
2018,01,20,02,50,3.20
2018,01,20,02,51,6.40
2018,01,20,02,52,6.40
2018,01,20,02,53,6.40
2018,01,20,02,54,3.20
2018,01,20,02,55,3.20
2018,01,20,02,56,6.40
2018,01,20,02,57,8.10
2018,01,20,02,58,6.40
2018,01,20,02,59,8.10
2018,01,20,03,00,6.40
2018,01,20,03,01,4.80
2018,01,20,03,02,3.20
2018,01,20,03,03,3.20
2018,01,20,03,04,3.20
2018,01,20,03,05,3.20
2018,01,20,03,06,3.20
2018,01,20,03,07,3.20
2018,01,20,03,08,3.20
2018,01,20,03,13,3.20
2018,01,20,03,14,3.20
2018,01,20,03,15,4.80
2018,01,20,03,16,4.80
2018,01,20,03,20,3.20
2018,01,20,03,21,4.80
2018,01,20,03,22,3.20
2018,01,20,03,32,3.20
2018,01,20,03,33,3.20
2018,01,20,03,34,1.60
2018,01,20,03,35,3.20
2018,01,20,03,36,4.80
2018,01,20,03,37,3.20
2018,01,20,03,38,3.20
2018,01,20,03,39,1.60
2018,01,20,03,42,3.20
2018,01,20,03,43,4.80
2018,01,20,03,44,3.20
2018,01,20,03,45,3.20
2018,01,20,03,46,3.20
2018,01,20,03,48,4.80
2018,01,20,03,49,4.80
2018,01,20,03,50,3.20
2018,01,20,03,51,1.60
2018,01,20,03,54,6.40
2018,01,20,03,55,4.80
2018,01,20,03,56,4.80
2018,01,20,03,57,3.20
2018,01,20,03,58,1.60
2018,01,20,04,23,1.60
2018,01,20,04,24,3.20
2018,01,20,04,25,3.20
2018,01,20,04,29,3.20
2018,01,20,04,30,3.20
2018,01,20,04,31,1.60
2018,01,20,04,32,1.60
2018,01,20,04,33,1.60
2018,01,20,04,34,3.20
2018,01,20,04,35,3.20
2018,01,20,04,43,1.60
2018,01,20,04,44,4.80
2018,01,20,04,45,4.80
2018,01,20,04,47,1.60
2018,01,20,04,49,3.20
2018,01,20,04,50,3.20
2018,01,20,04,51,3.20
2018,01,20,04,52,3.20
2018,01,20,04,53,3.20
2018,01,20,04,54,3.20
2018,01,20,04,55,1.60
2018,01,20,04,58,1.60
2018,01,20,05,01,3.20
2018,01,20,05,02,1.60
2018,01,20,05,05,1.60
2018,01,20,05,22,3.20
2018,01,20,05,23,4.80
2018,01,20,05,24,4.80
2018,01,20,05,25,6.40
2018,01,20,05,26,4.80
2018,01,20,05,27,4.80
2018,01,20,05,28,3.20
2018,01,20,05,29,4.80
2018,01,20,05,30,4.80
2018,01,20,05,31,4.80
2018,01,20,05,32,4.80
2018,01,20,05,33,6.40
2018,01,20,05,34,3.20
2018,01,20,05,35,3.20
2018,01,20,05,36,3.20
2018,01,20,05,37,3.20
2018,01,20,05,38,3.20
2018,01,20,05,45,4.80
2018,01,20,05,46,1.60
2018,01,20,05,48,3.20
2018,01,20,05,49,4.80
2018,01,20,05,50,3.20
2018,01,20,05,51,3.20
2018,01,20,05,52,3.20
2018,01,20,05,53,4.80
2018,01,20,05,54,4.80
2018,01,20,05,55,6.40
2018,01,20,05,56,6.40
2018,01,20,05,57,3.20
2018,01,20,05,58,4.80
2018,01,20,05,59,4.80
2018,01,20,06,00,6.40
2018,01,20,06,01,6.40
2018,01,20,06,02,4.80
2018,01,20,06,03,4.80
2018,01,20,06,04,4.80
2018,01,20,06,05,4.80
2018,01,20,06,06,3.20
2018,01,20,06,07,4.80
2018,01,20,06,08,4.80
2018,01,20,06,09,4.80
2018,01,20,06,10,1.60
2018,01,20,06,11,3.20
2018,01,20,06,12,3.20
2018,01,20,06,13,1.60
2018,01,20,06,16,3.20
2018,01,20,06,17,6.40
2018,01,20,06,18,6.40
2018,01,20,06,19,4.80
2018,01,20,06,20,4.80
2018,01,20,06,21,4.80
2018,01,20,06,22,6.40
2018,01,20,06,23,4.80
2018,01,20,06,24,4.80
2018,01,20,06,25,4.80
2018,01,20,06,26,4.80
2018,01,20,06,27,4.80
2018,01,20,06,28,6.40
2018,01,20,06,29,4.80
2018,01,20,06,30,4.80
2018,01,20,06,31,6.40
2018,01,20,06,32,3.20
2018,01,20,06,33,4.80
2018,01,20,06,34,3.20
2018,01,20,06,35,3.20
2018,01,20,06,36,3.20
2018,01,20,06,37,8.10
2018,01,20,06,38,3.20
2018,01,20,06,39,6.40
2018,01,20,06,40,6.40
2018,01,20,06,41,4.80
2018,01,20,06,42,25.70
2018,01,20,06,43,27.40
2018,01,20,06,44,14.50
2018,01,20,06,45,11.30
2018,01,20,06,46,12.90
2018,01,20,06,47,12.90
2018,01,20,06,48,8.10
2018,01,20,06,49,4.80
2018,01,20,06,50,14.50
2018,01,20,06,51,11.30
2018,01,20,06,52,9.60
2018,01,20,06,53,8.10
2018,01,20,06,54,16.10
2018,01,20,06,55,6.40
2018,01,20,06,56,12.90
2018,01,20,06,57,14.50
2018,01,20,06,58,20.90
2018,01,20,06,59,16.10
2018,01,20,07,00,12.90
2018,01,20,07,01,14.50
2018,01,20,07,02,24.20
2018,01,20,07,03,11.30
2018,01,20,07,04,12.90
2018,01,20,07,05,11.30
2018,01,20,07,06,17.70
2018,01,20,07,07,12.90
2018,01,20,07,08,19.30
2018,01,20,07,09,17.70
2018,01,20,07,10,14.50
2018,01,20,07,11,29.00
2018,01,20,07,12,19.30
2018,01,20,07,13,14.50
2018,01,20,07,14,16.10
2018,01,20,07,15,19.30
2018,01,20,07,16,16.10
2018,01,20,07,17,24.20
2018,01,20,07,18,16.10
2018,01,20,07,19,17.70
2018,01,20,07,20,29.00
2018,01,20,07,21,27.40
2018,01,20,07,22,29.00
2018,01,20,07,23,25.70
2018,01,20,07,24,27.40
2018,01,20,07,25,19.30
2018,01,20,07,26,25.70
2018,01,20,07,27,27.40
2018,01,20,07,28,27.40
2018,01,20,07,29,19.30
2018,01,20,07,30,19.30
2018,01,20,07,31,20.90
2018,01,20,07,32,12.90
2018,01,20,07,33,22.50
2018,01,20,07,34,24.20
2018,01,20,07,35,22.50
2018,01,20,07,36,19.30
2018,01,20,07,37,20.90
2018,01,20,07,38,33.80
2018,01,20,07,39,30.60
2018,01,20,07,40,22.50
2018,01,20,07,41,22.50
2018,01,20,07,42,22.50
2018,01,20,07,43,11.30
2018,01,20,07,44,17.70
2018,01,20,07,45,27.40
2018,01,20,07,46,20.90
2018,01,20,07,47,12.90
2018,01,20,07,48,11.30
2018,01,20,07,49,24.20
2018,01,20,07,50,24.20
2018,01,20,07,51,29.00
2018,01,20,07,52,24.20
2018,01,20,07,53,16.10
2018,01,20,07,54,19.30
2018,01,20,07,55,24.20
2018,01,20,07,56,22.50
2018,01,20,07,57,22.50
2018,01,20,07,58,20.90
2018,01,20,07,59,16.10
2018,01,20,08,00,19.30
2018,01,20,08,01,17.70
2018,01,20,08,02,19.30
2018,01,20,08,03,24.20
2018,01,20,08,04,22.50
2018,01,20,08,05,17.70
2018,01,20,08,06,17.70
2018,01,20,08,07,11.30
2018,01,20,08,08,25.70
2018,01,20,08,09,17.70
2018,01,20,08,10,20.90
2018,01,20,08,11,14.50
2018,01,20,08,12,12.90
2018,01,20,08,13,14.50
2018,01,20,08,14,17.70
2018,01,20,08,15,14.50
2018,01,20,08,16,4.80
2018,01,20,08,17,11.30
2018,01,20,08,18,16.10
2018,01,20,08,19,14.50
2018,01,20,08,20,11.30
2018,01,20,08,21,16.10
2018,01,20,08,22,17.70
2018,01,20,08,23,12.90
2018,01,20,08,24,11.30
2018,01,20,08,25,12.90
2018,01,20,08,26,19.30
2018,01,20,08,27,38.60
2018,01,20,08,28,14.50
2018,01,20,08,29,17.70
2018,01,20,08,30,14.50
2018,01,20,08,31,27.40
2018,01,20,08,32,27.40
2018,01,20,08,33,17.70
2018,01,20,08,34,19.30
2018,01,20,08,35,19.30
2018,01,20,08,36,16.10
2018,01,20,08,37,29.00
2018,01,20,08,38,27.40
2018,01,20,08,39,30.60
2018,01,20,08,40,30.60
2018,01,20,08,41,22.50
2018,01,20,08,42,24.20
2018,01,20,08,43,29.00
2018,01,20,08,44,22.50
2018,01,20,08,45,24.20
2018,01,20,08,46,33.80
2018,01,20,08,47,20.90
2018,01,20,08,48,37.00
2018,01,20,08,49,32.20
2018,01,20,08,50,32.20
2018,01,20,08,51,37.00
2018,01,20,08,52,30.60
2018,01,20,08,53,33.80
2018,01,20,08,54,33.80
2018,01,20,08,55,29.00
2018,01,20,08,56,45.10
2018,01,20,08,57,40.20
2018,01,20,08,58,33.80
2018,01,20,08,59,33.80
2018,01,20,09,00,35.40
2018,01,20,09,01,37.00
2018,01,20,09,02,35.40
2018,01,20,09,03,29.00
2018,01,20,09,04,17.70
2018,01,20,09,05,25.70
2018,01,20,09,06,38.60
2018,01,20,09,07,25.70
2018,01,20,09,08,22.50
2018,01,20,09,09,35.40
2018,01,20,09,10,27.40
2018,01,20,09,11,25.70
2018,01,20,09,12,29.00
2018,01,20,09,13,24.20
2018,01,20,09,14,29.00
2018,01,20,09,15,30.60
2018,01,20,09,16,19.30
2018,01,20,09,17,25.70
2018,01,20,09,18,30.60
2018,01,20,09,19,32.20
2018,01,20,09,20,35.40
2018,01,20,09,21,30.60
2018,01,20,09,22,41.80
2018,01,20,09,23,20.90
2018,01,20,09,24,41.80
2018,01,20,09,25,38.60
2018,01,20,09,26,30.60
2018,01,20,09,27,22.50
2018,01,20,09,28,24.20
2018,01,20,09,29,38.60
2018,01,20,09,30,30.60
2018,01,20,09,31,29.00
2018,01,20,09,32,29.00
2018,01,20,09,33,29.00
2018,01,20,09,34,25.70
2018,01,20,09,35,37.00
2018,01,20,09,36,35.40
2018,01,20,09,37,32.20
2018,01,20,09,38,33.80
2018,01,20,09,39,33.80
2018,01,20,09,40,33.80
2018,01,20,09,41,33.80
2018,01,20,09,42,22.50
2018,01,20,09,43,32.20
2018,01,20,09,44,27.40
2018,01,20,09,45,20.90
2018,01,20,09,46,19.30
2018,01,20,09,47,24.20
2018,01,20,09,48,32.20
2018,01,20,09,49,35.40
2018,01,20,09,50,33.80
2018,01,20,09,51,30.60
2018,01,20,09,52,22.50
2018,01,20,09,53,33.80
2018,01,20,09,54,32.20
2018,01,20,09,55,27.40
2018,01,20,09,56,22.50
2018,01,20,09,57,27.40
2018,01,20,09,58,30.60
2018,01,20,09,59,30.60
2018,01,20,10,00,25.70
2018,01,20,10,01,22.50
2018,01,20,10,02,24.20
2018,01,20,10,03,20.90
2018,01,20,10,04,33.80
2018,01,20,10,05,38.60
2018,01,20,10,06,33.80
2018,01,20,10,07,33.80
2018,01,20,10,08,38.60
2018,01,20,10,09,35.40
2018,01,20,10,10,32.20
2018,01,20,10,11,30.60
2018,01,20,10,12,35.40
2018,01,20,10,13,40.20
2018,01,20,10,14,35.40
2018,01,20,10,15,32.20
2018,01,20,10,16,25.70
2018,01,20,10,17,22.50
2018,01,20,10,18,27.40
2018,01,20,10,19,40.20
2018,01,20,10,20,24.20
2018,01,20,10,21,19.30
2018,01,20,10,22,12.90
2018,01,20,10,23,35.40
2018,01,20,10,24,22.50
2018,01,20,10,25,29.00
2018,01,20,10,26,24.20
2018,01,20,10,27,27.40
2018,01,20,10,28,27.40
2018,01,20,10,29,22.50
2018,01,20,10,30,22.50
2018,01,20,10,31,38.60
2018,01,20,10,32,25.70
2018,01,20,10,33,32.20
2018,01,20,10,34,22.50
2018,01,20,10,35,12.90
2018,01,20,10,36,24.20
2018,01,20,10,37,22.50
2018,01,20,10,38,27.40
2018,01,20,10,39,43.50
2018,01,20,10,40,41.80
2018,01,20,10,41,29.00
2018,01,20,10,42,30.60
2018,01,20,10,43,14.50
2018,01,20,10,44,19.30
2018,01,20,10,45,24.20
2018,01,20,10,46,22.50
2018,01,20,10,47,19.30
2018,01,20,10,48,37.00
2018,01,20,10,49,27.40
2018,01,20,10,50,30.60
2018,01,20,10,51,22.50
2018,01,20,10,52,40.20
2018,01,20,10,53,38.60
2018,01,20,10,54,19.30
2018,01,20,10,55,17.70
2018,01,20,10,56,24.20
2018,01,20,10,57,17.70
2018,01,20,10,58,35.40
2018,01,20,10,59,17.70
2018,01,20,11,00,19.30
2018,01,20,11,01,35.40
2018,01,20,11,02,25.70
2018,01,20,11,03,16.10
2018,01,20,11,04,45.10
2018,01,20,11,05,40.20
2018,01,20,11,06,33.80
2018,01,20,11,07,30.60
2018,01,20,11,08,20.90
2018,01,20,11,09,17.70
2018,01,20,11,10,30.60
2018,01,20,11,11,46.70
2018,01,20,11,12,38.60
2018,01,20,11,13,30.60
2018,01,20,11,14,56.30
2018,01,20,11,15,40.20
2018,01,20,11,16,33.80
2018,01,20,11,17,27.40
2018,01,20,11,18,25.70
2018,01,20,11,19,33.80
2018,01,20,11,20,24.20
2018,01,20,11,21,22.50
2018,01,20,11,22,38.60
2018,01,20,11,23,35.40
2018,01,20,11,24,35.40
2018,01,20,11,25,32.20
2018,01,20,11,26,35.40
2018,01,20,11,27,32.20
2018,01,20,11,28,38.60
2018,01,20,11,29,37.00
2018,01,20,11,30,33.80
2018,01,20,11,31,30.60
2018,01,20,11,32,30.60
2018,01,20,11,33,27.40
2018,01,20,11,34,29.00
2018,01,20,11,35,35.40
2018,01,20,11,36,22.50
2018,01,20,11,37,24.20
2018,01,20,11,38,37.00
2018,01,20,11,39,30.60
2018,01,20,11,40,38.60
2018,01,20,11,41,30.60
2018,01,20,11,42,33.80
2018,01,20,11,43,27.40
2018,01,20,11,44,32.20
2018,01,20,11,45,35.40
2018,01,20,11,46,20.90
2018,01,20,11,47,35.40
2018,01,20,11,48,25.70
2018,01,20,11,49,24.20
2018,01,20,11,50,46.70
2018,01,20,11,51,24.20
2018,01,20,11,52,43.50
2018,01,20,11,53,22.50
2018,01,20,11,54,37.00
2018,01,20,11,55,30.60
2018,01,20,11,56,33.80
2018,01,20,11,57,32.20
2018,01,20,11,58,35.40
2018,01,20,11,59,40.20
2018,01,20,12,00,32.20
2018,01,20,12,01,20.90
2018,01,20,12,02,40.20
2018,01,20,12,03,30.60
2018,01,20,12,04,35.40
2018,01,20,12,05,27.40
2018,01,20,12,06,19.30
2018,01,20,12,07,27.40
2018,01,20,12,08,35.40
2018,01,20,12,09,41.80
2018,01,20,12,10,30.60
2018,01,20,12,11,32.20
2018,01,20,12,12,33.80
2018,01,20,12,13,37.00
2018,01,20,12,14,27.40
2018,01,20,12,15,40.20
2018,01,20,12,16,25.70
2018,01,20,12,17,35.40
2018,01,20,12,18,38.60
2018,01,20,12,19,48.30
2018,01,20,12,20,45.10
2018,01,20,12,21,29.00
2018,01,20,12,22,32.20
2018,01,20,12,23,35.40
2018,01,20,12,24,19.30
2018,01,20,12,25,20.90
2018,01,20,12,26,46.70
2018,01,20,12,27,25.70
2018,01,20,12,28,30.60
2018,01,20,12,29,32.20
2018,01,20,12,30,37.00
2018,01,20,12,31,25.70
2018,01,20,12,32,43.50
2018,01,20,12,33,37.00
2018,01,20,12,34,35.40
2018,01,20,12,35,19.30
2018,01,20,12,36,32.20
2018,01,20,12,37,33.80
2018,01,20,12,38,27.40
2018,01,20,12,39,25.70
2018,01,20,12,40,25.70
2018,01,20,12,41,20.90
2018,01,20,12,42,41.80
2018,01,20,12,43,32.20
2018,01,20,12,44,30.60
2018,01,20,12,45,35.40
2018,01,20,12,46,40.20
2018,01,20,12,47,48.30
2018,01,20,12,48,51.50
2018,01,20,12,49,38.60
2018,01,20,12,50,40.20
2018,01,20,12,51,51.50
2018,01,20,12,52,56.30
2018,01,20,12,53,45.10
2018,01,20,12,54,37.00
2018,01,20,12,55,33.80
2018,01,20,12,56,32.20
2018,01,20,12,57,32.20
2018,01,20,12,58,61.20
2018,01,20,12,59,38.60
2018,01,20,13,00,25.70
2018,01,20,13,01,37.00
2018,01,20,13,02,20.90
2018,01,20,13,03,22.50
2018,01,20,13,04,30.60
2018,01,20,13,05,35.40
2018,01,20,13,06,38.60
2018,01,20,13,07,41.80
2018,01,20,13,08,38.60
2018,01,20,13,09,41.80
2018,01,20,13,10,32.20
2018,01,20,13,11,30.60
2018,01,20,13,12,29.00
2018,01,20,13,13,33.80
2018,01,20,13,14,35.40
2018,01,20,13,15,19.30
2018,01,20,13,16,46.70
2018,01,20,13,17,29.00
2018,01,20,13,18,27.40
2018,01,20,13,19,24.20
2018,01,20,13,20,35.40
2018,01,20,13,21,30.60
2018,01,20,13,22,35.40
2018,01,20,13,23,32.20
2018,01,20,13,24,32.20
2018,01,20,13,25,32.20
2018,01,20,13,26,24.20
2018,01,20,13,27,35.40
2018,01,20,13,28,25.70
2018,01,20,13,29,25.70
2018,01,20,13,30,51.50
2018,01,20,13,31,38.60
2018,01,20,13,32,30.60
2018,01,20,13,33,19.30
2018,01,20,13,34,24.20
2018,01,20,13,35,43.50
2018,01,20,13,36,19.30
2018,01,20,13,37,24.20
2018,01,20,13,38,32.20
2018,01,20,13,39,22.50
2018,01,20,13,40,22.50
2018,01,20,13,41,43.50
2018,01,20,13,42,33.80
2018,01,20,13,43,17.70
2018,01,20,13,44,20.90
2018,01,20,13,45,35.40
2018,01,20,13,46,37.00
2018,01,20,13,47,40.20
2018,01,20,13,48,48.30
2018,01,20,13,49,38.60
2018,01,20,13,50,29.00
2018,01,20,13,51,32.20
2018,01,20,13,52,45.10
2018,01,20,13,53,35.40
2018,01,20,13,54,24.20
2018,01,20,13,55,33.80
2018,01,20,13,56,41.80
2018,01,20,13,57,33.80
2018,01,20,13,58,33.80
2018,01,20,13,59,25.70
2018,01,20,14,00,22.50
2018,01,20,14,01,20.90
2018,01,20,14,02,33.80
2018,01,20,14,03,24.20
2018,01,20,14,04,41.80
2018,01,20,14,05,33.80
2018,01,20,14,06,25.70
2018,01,20,14,07,67.60
2018,01,20,14,08,48.30
2018,01,20,14,09,41.80
2018,01,20,14,10,66.00
2018,01,20,14,11,53.10
2018,01,20,14,12,38.60
2018,01,20,14,13,38.60
2018,01,20,14,14,37.00
2018,01,20,14,15,20.90
2018,01,20,14,16,35.40
2018,01,20,14,17,46.70
2018,01,20,14,18,41.80
2018,01,20,14,19,32.20
2018,01,20,14,20,53.10
2018,01,20,14,21,41.80
2018,01,20,14,22,46.70
2018,01,20,14,23,46.70
2018,01,20,14,24,40.20
2018,01,20,14,25,38.60
2018,01,20,14,26,57.90
2018,01,20,14,27,62.70
2018,01,20,14,28,56.30
2018,01,20,14,29,48.30
2018,01,20,14,30,66.00
2018,01,20,14,31,61.20
2018,01,20,14,32,43.50
2018,01,20,14,33,33.80
2018,01,20,14,34,59.50
2018,01,20,14,35,54.70
2018,01,20,14,36,46.70
2018,01,20,14,37,51.50
2018,01,20,14,38,41.80
2018,01,20,14,39,59.50
2018,01,20,14,40,51.50
2018,01,20,14,41,57.90
2018,01,20,14,42,61.20
2018,01,20,14,43,45.10
2018,01,20,14,44,61.20
2018,01,20,14,45,45.10
2018,01,20,14,46,46.70
2018,01,20,14,47,35.40
2018,01,20,14,48,59.50
2018,01,20,14,49,43.50
2018,01,20,14,50,61.20
2018,01,20,14,51,38.60
2018,01,20,14,52,54.70
2018,01,20,14,53,59.50
2018,01,20,14,54,64.40
2018,01,20,14,55,41.80
2018,01,20,14,56,51.50
2018,01,20,14,57,45.10
2018,01,20,14,58,35.40
2018,01,20,14,59,56.30
2018,01,20,15,00,33.80
2018,01,20,15,01,69.20
2018,01,20,15,02,53.10
2018,01,20,15,03,40.20
2018,01,20,15,04,40.20
2018,01,20,15,05,38.60
2018,01,20,15,06,41.80
2018,01,20,15,07,57.90
2018,01,20,15,08,45.10
2018,01,20,15,09,27.40
2018,01,20,15,10,49.90
2018,01,20,15,11,37.00
2018,01,20,15,12,64.40
2018,01,20,15,13,62.70
2018,01,20,15,14,30.60
2018,01,20,15,15,37.00
2018,01,20,15,16,41.80
2018,01,20,15,17,51.50
2018,01,20,15,18,41.80
2018,01,20,15,19,38.60
2018,01,20,15,20,45.10
2018,01,20,15,21,45.10
2018,01,20,15,22,70.80
2018,01,20,15,23,37.00
2018,01,20,15,24,48.30
2018,01,20,15,25,66.00
2018,01,20,15,26,69.20
2018,01,20,15,27,53.10
2018,01,20,15,28,51.50
2018,01,20,15,29,62.70
2018,01,20,15,30,56.30
2018,01,20,15,31,64.40
2018,01,20,15,32,48.30
2018,01,20,15,33,49.90
2018,01,20,15,34,49.90
2018,01,20,15,35,54.70
2018,01,20,15,36,33.80
2018,01,20,15,37,56.30
2018,01,20,15,38,51.50
2018,01,20,15,39,49.90
2018,01,20,15,40,54.70
2018,01,20,15,41,38.60
2018,01,20,15,42,66.00
2018,01,20,15,43,49.90
2018,01,20,15,44,57.90
2018,01,20,15,45,40.20
2018,01,20,15,46,53.10
2018,01,20,15,47,51.50
2018,01,20,15,48,51.50
2018,01,20,15,49,49.90
2018,01,20,15,50,62.70
2018,01,20,15,51,38.60
2018,01,20,15,52,48.30
2018,01,20,15,53,45.10
2018,01,20,15,54,45.10
2018,01,20,15,55,37.00
2018,01,20,15,56,51.50
2018,01,20,15,57,56.30
2018,01,20,15,58,57.90
2018,01,20,15,59,57.90
2018,01,20,16,00,59.50
2018,01,20,16,01,62.70
2018,01,20,16,02,64.40
2018,01,20,16,03,43.50
2018,01,20,16,04,57.90
2018,01,20,16,05,56.30
2018,01,20,16,06,48.30
2018,01,20,16,07,45.10
2018,01,20,16,08,62.70
2018,01,20,16,09,30.60
2018,01,20,16,10,48.30
2018,01,20,16,11,66.00
2018,01,20,16,12,45.10
2018,01,20,16,13,56.30
2018,01,20,16,14,45.10
2018,01,20,16,15,49.90
2018,01,20,16,16,33.80
2018,01,20,16,17,24.20
2018,01,20,16,18,29.00
2018,01,20,16,19,45.10
2018,01,20,16,20,43.50
2018,01,20,16,21,41.80
2018,01,20,16,22,45.10
2018,01,20,16,23,66.00
2018,01,20,16,24,43.50
2018,01,20,16,25,96.60
2018,01,20,16,26,70.80
2018,01,20,16,27,51.50
2018,01,20,16,28,46.70
2018,01,20,16,29,27.40
2018,01,20,16,30,48.30
2018,01,20,16,31,59.50
2018,01,20,16,32,48.30
2018,01,20,16,33,38.60
2018,01,20,16,34,46.70
2018,01,20,16,35,45.10
2018,01,20,16,36,46.70
2018,01,20,16,37,29.00
2018,01,20,16,38,32.20
2018,01,20,16,39,25.70
2018,01,20,16,40,41.80
2018,01,20,16,41,29.00
2018,01,20,16,42,30.60
2018,01,20,16,43,29.00
2018,01,20,16,44,30.60
2018,01,20,16,45,37.00
2018,01,20,16,46,25.70
2018,01,20,16,47,24.20
2018,01,20,16,48,22.50
2018,01,20,16,49,19.30
2018,01,20,16,50,27.40
2018,01,20,16,51,38.60
2018,01,20,16,52,32.20
2018,01,20,16,53,67.60
2018,01,20,16,54,35.40
2018,01,20,16,55,38.60
2018,01,20,16,56,33.80
2018,01,20,16,57,33.80
2018,01,20,16,58,38.60
2018,01,20,16,59,33.80
2018,01,20,17,00,30.60
2018,01,20,17,01,32.20
2018,01,20,17,02,37.00
2018,01,20,17,03,33.80
2018,01,20,17,04,37.00
2018,01,20,17,05,41.80
2018,01,20,17,06,33.80
2018,01,20,17,07,32.20
2018,01,20,17,08,35.40
2018,01,20,17,09,22.50
2018,01,20,17,10,25.70
2018,01,20,17,11,19.30
2018,01,20,17,12,24.20
2018,01,20,17,13,19.30
2018,01,20,17,14,25.70
2018,01,20,17,15,32.20
2018,01,20,17,16,46.70
2018,01,20,17,17,22.50
2018,01,20,17,18,30.60
2018,01,20,17,19,22.50
2018,01,20,17,20,19.30
2018,01,20,17,21,40.20
2018,01,20,17,22,35.40
2018,01,20,17,23,24.20
2018,01,20,17,24,20.90
2018,01,20,17,25,16.10
2018,01,20,17,26,16.10
2018,01,20,17,27,29.00
2018,01,20,17,28,45.10
2018,01,20,17,29,22.50
2018,01,20,17,30,32.20
2018,01,20,17,31,27.40
2018,01,20,17,32,29.00
2018,01,20,17,33,25.70
2018,01,20,17,34,25.70
2018,01,20,17,35,35.40
2018,01,20,17,36,32.20
2018,01,20,17,37,20.90
2018,01,20,17,38,19.30
2018,01,20,17,39,19.30
2018,01,20,17,40,16.10
2018,01,20,17,41,17.70
2018,01,20,17,42,16.10
2018,01,20,17,43,12.90
2018,01,20,17,44,19.30
2018,01,20,17,45,19.30
2018,01,20,17,46,16.10
2018,01,20,17,47,11.30
2018,01,20,17,48,9.60
2018,01,20,17,49,20.90
2018,01,20,17,50,17.70
2018,01,20,17,51,17.70
2018,01,20,17,52,11.30
2018,01,20,17,53,17.70
2018,01,20,17,54,27.40
2018,01,20,17,55,19.30
2018,01,20,17,56,11.30
2018,01,20,17,57,16.10
2018,01,20,17,58,12.90
2018,01,20,17,59,8.10
2018,01,20,18,00,27.40
2018,01,20,18,01,25.70
2018,01,20,18,02,22.50
2018,01,20,18,03,20.90
2018,01,20,18,04,19.30
2018,01,20,18,05,19.30
2018,01,20,18,06,11.30
2018,01,20,18,07,11.30
2018,01,20,18,08,14.50
2018,01,20,18,09,12.90
2018,01,20,18,10,22.50
2018,01,20,18,11,16.10
2018,01,20,18,12,22.50
2018,01,20,18,13,19.30
2018,01,20,18,14,24.20
2018,01,20,18,15,16.10
2018,01,20,18,16,17.70
2018,01,20,18,17,19.30
2018,01,20,18,18,17.70
2018,01,20,18,19,17.70
2018,01,20,18,20,25.70
2018,01,20,18,21,19.30
2018,01,20,18,22,27.40
2018,01,20,18,23,30.60
2018,01,20,18,24,29.00
2018,01,20,18,25,19.30
2018,01,20,18,26,19.30
2018,01,20,18,27,16.10
2018,01,20,18,28,30.60
2018,01,20,18,29,37.00
2018,01,20,18,30,38.60
2018,01,20,18,31,29.00
2018,01,20,18,32,35.40
2018,01,20,18,33,33.80
2018,01,20,18,34,32.20
2018,01,20,18,35,37.00
2018,01,20,18,36,20.90
2018,01,20,18,37,20.90
2018,01,20,18,38,30.60
2018,01,20,18,39,24.20
2018,01,20,18,40,27.40
2018,01,20,18,41,19.30
2018,01,20,18,42,24.20
2018,01,20,18,43,43.50
2018,01,20,18,44,32.20
2018,01,20,18,45,17.70
2018,01,20,18,46,33.80
2018,01,20,18,47,35.40
2018,01,20,18,48,32.20
2018,01,20,18,49,40.20
2018,01,20,18,50,37.00
2018,01,20,18,51,30.60
2018,01,20,18,52,27.40
2018,01,20,18,53,25.70
2018,01,20,18,54,41.80
2018,01,20,18,55,24.20
2018,01,20,18,56,27.40
2018,01,20,18,57,29.00
2018,01,20,18,58,27.40
2018,01,20,18,59,27.40
2018,01,20,19,00,43.50
2018,01,20,19,01,19.30
2018,01,20,19,02,25.70
2018,01,20,19,03,14.50
2018,01,20,19,04,35.40
2018,01,20,19,05,25.70
2018,01,20,19,06,20.90
2018,01,20,19,07,17.70
2018,01,20,19,08,24.20
2018,01,20,19,09,24.20
2018,01,20,19,10,29.00
2018,01,20,19,11,30.60
2018,01,20,19,12,29.00
2018,01,20,19,13,27.40
2018,01,20,19,14,32.20
2018,01,20,19,15,27.40
2018,01,20,19,16,19.30
2018,01,20,19,17,19.30
2018,01,20,19,18,20.90
2018,01,20,19,19,27.40
2018,01,20,19,20,24.20
2018,01,20,19,21,29.00
2018,01,20,19,22,27.40
2018,01,20,19,23,35.40
2018,01,20,19,24,22.50
2018,01,20,19,25,24.20
2018,01,20,19,26,22.50
2018,01,20,19,27,19.30
2018,01,20,19,28,17.70
2018,01,20,19,29,22.50
2018,01,20,19,30,17.70
2018,01,20,19,31,24.20
2018,01,20,19,32,27.40
2018,01,20,19,33,30.60
2018,01,20,19,34,30.60
2018,01,20,19,35,19.30
2018,01,20,19,36,29.00
2018,01,20,19,37,29.00
2018,01,20,19,38,30.60
2018,01,20,19,39,35.40
2018,01,20,19,40,27.40
2018,01,20,19,41,19.30
2018,01,20,19,42,24.20
2018,01,20,19,43,24.20
2018,01,20,19,44,32.20
2018,01,20,19,45,22.50
2018,01,20,19,46,33.80
2018,01,20,19,47,32.20
2018,01,20,19,48,24.20
2018,01,20,19,49,45.10
2018,01,20,19,50,33.80
2018,01,20,19,51,22.50
2018,01,20,19,52,30.60
2018,01,20,19,53,30.60
2018,01,20,19,54,25.70
2018,01,20,19,55,30.60
2018,01,20,19,56,20.90
2018,01,20,19,57,20.90
2018,01,20,19,58,25.70
2018,01,20,19,59,33.80
2018,01,20,20,00,38.60
2018,01,20,20,01,25.70
2018,01,20,20,02,32.20
2018,01,20,20,03,30.60
2018,01,20,20,04,24.20
2018,01,20,20,05,30.60
2018,01,20,20,06,25.70
2018,01,20,20,07,17.70
2018,01,20,20,08,19.30
2018,01,20,20,09,29.00
2018,01,20,20,10,27.40
2018,01,20,20,11,45.10
2018,01,20,20,12,27.40
2018,01,20,20,13,30.60
2018,01,20,20,14,32.20
2018,01,20,20,15,33.80
2018,01,20,20,16,33.80
2018,01,20,20,17,33.80
2018,01,20,20,18,27.40
2018,01,20,20,19,29.00
2018,01,20,20,20,19.30
2018,01,20,20,21,40.20